This is the latest recevied weather packets stored in our database for station/object SA3PJN-WX. If no packets are shown the sender has not sent any weather packets the latest 1 day(s).
| Time | Temp. | Humidity | Pressure | Rain* | Wind** | Luminosity | Snow |
|---|---|---|---|---|---|---|---|
| 1778067333 | 10.56° C | 37% | 966.5 hPa | - | - | - | - |
| 1778067033 | 10.56° C | 36% | 966.5 hPa | - | - | - | - |
| 1778066733 | 10.56° C | 32% | 966.4 hPa | - | - | - | - |
| 1778066433 | 10.56° C | 35% | 966.5 hPa | - | - | - | - |
| 1778066133 | 10.56° C | 37% | 966.4 hPa | - | - | - | - |
| 1778065803 | 10° C | 38% | 966.5 hPa | - | - | - | - |
| 1778064873 | 8.33° C | 39% | 966.5 hPa | - | - | - | - |
| 1778064573 | 8.33° C | 37% | 966.3 hPa | - | - | - | - |
| 1778064273 | 10° C | 45% | 966.5 hPa | - | - | - | - |
| 1778063943 | 9.44° C | 42% | 966.5 hPa | - | - | - | - |
| 1778063613 | 9.44° C | 39% | 966.5 hPa | - | - | - | - |
| 1778062713 | 7.78° C | 41% | 966.4 hPa | - | - | - | - |
| 1778059082 | 8.33° C | 45% | 966.5 hPa | - | - | - | - |
| 1778057852 | 7.78° C | 47% | 966.4 hPa | - | - | - | - |
| 1778057552 | 8.33° C | 48% | 966.5 hPa | - | - | - | - |
| 1778057252 | 7.78° C | 48% | 966.5 hPa | - | - | - | - |
| 1778056952 | 7.22° C | 49% | 966.5 hPa | - | - | - | - |
| 1778056322 | 7.78° C | 47% | 966.4 hPa | - | - | - | - |
| 1778056022 | 7.78° C | 47% | 966.6 hPa | - | - | - | - |
| 1778055722 | 7.22° C | 50% | 966.4 hPa | - | - | - | - |
| 1778055422 | 6.67° C | 54% | 966.5 hPa | - | - | - | - |
| 1778055122 | 5.56° C | 50% | 966.4 hPa | - | - | - | - |
| 1778054822 | 6.67° C | 52% | 966.5 hPa | - | - | - | - |
| 1778054222 | 6.67° C | 52% | 966.4 hPa | - | - | - | - |
| 1778053922 | 7.22° C | 51% | 966.4 hPa | - | - | - | - |
* Rain since midnight (hover to see other rain measurements)
** Current wind speed in m/s (hover to see current wind gust speed)